Location: Agendoh
(31.0664°N, 8.9343°W)
Time: 20:26:23
(UTC+00:00)

COSMO-SKYMED 1 - Pass Details

Date: 06 December 2021
Orbit: 621 x 623 km, 97.9° (Epoch: 17 January)

Event Time Altitude Azimuth Distance (km) Brightness Sun altitude
Rises 06:07:51 0° 174° (S) 2,886 6.3 -15.2°
Reaches altitude 10° 06:10:02 10° 177° (S) 1,984 5.4 -14.8°
Maximum altitude 06:14:19 64° 259° (W) 690 2.5 -13.9°
Drops below altitude 10° 06:18:38 10° 341° (NNW) 1,997 4.8 -13.0°
Enters shadow 06:20:03 - 344° (NNW) 2,576 5.4 -12.8°
